Ralph M Calhoun Memorial Airport

Jump to: basic info | weather | runways | comments

Related pages: nearby airports | nearby navaids | notams | map

Basic information (top)

Codes: TAL PATA
Location: lon 65.174400, lat -152.108994, elev 236 ft / 72 m msl
Status: small_airport
Scheduled airline service: no
Links: Wikipedia Mobile

Weather (top)

Current conditions (rec'd 2014/09/02 16:52Z):

PATA 021652Z 31007KT 10SM FEW035 SCT090 02/00 A2982 RMK AO2 SLP103 T00170000

Airport forecast (rec'd 2014/09/02 18:45Z):

TAF PATA 021739Z 0218/0318 31008KT P6SM VCSH FEW035 SCT080 
     FM022000 25012KT P6SM FEW035 SCT090 
     FM031000 27007KT 6SM BR OVC025 
     FM031400 28008KT P6SM FEW025 OVC050

Runways (top)

07/25: 4,400 x 150 ft (1,341 x 46 m) — other (GRVL-P) — not lighted

Latest comments (top)

Memorial for what?: As I did not know him personally, I did ... [read]

More... (top)

See also NOTAMs and nearby airports and navaids, or visit the Ralph M Calhoun Memorial Airport page at the main OurAirports website..